STARLINK-32179

Last updated on Sat Sep 28 2024 00:02:03 GMT+0000 (Coordinated Universal Time)

1 60734U 24152Q 24271.58334491 -.01504556 00000+0 -46219-1 0 9997 2 60734 53.1605 201.8603 0001367 83.1146 118.3244 15.36449113 5962

Satellite not in orbit